TimeEDT,TemperatureF,Dew PointF,Humidity,Sea Level PressureIn,VisibilityMPH,Wind Direction,Wind SpeedMPH,Gust SpeedMPH,PrecipitationIn,Events,Conditions,WindDirDegrees,DateUTC
12:52 AM,42.1,30.9,65,30.12,10.0,WNW,3.5,-,N/A,,Clear,300,2013-10-28 04:52:00
1:52 AM,42.1,30.9,65,30.13,10.0,WNW,4.6,-,N/A,,Clear,300,2013-10-28 05:52:00
2:52 AM,43.0,32.0,65,30.13,10.0,West,4.6,-,N/A,,Clear,270,2013-10-28 06:52:00
3:52 AM,43.0,33.1,68,30.13,10.0,WSW,3.5,-,N/A,,Clear,250,2013-10-28 07:52:00
4:52 AM,41.0,32.0,70,30.14,10.0,West,3.5,-,N/A,,Clear,270,2013-10-28 08:52:00
5:52 AM,37.9,30.9,76,30.15,10.0,NW,3.5,-,N/A,,Clear,310,2013-10-28 09:52:00
6:52 AM,37.0,30.9,79,30.16,10.0,WNW,3.5,-,N/A,,Clear,300,2013-10-28 10:52:00
7:52 AM,39.9,33.1,77,30.19,10.0,Calm,Calm,-,N/A,,Clear,0,2013-10-28 11:52:00
8:52 AM,46.9,35.1,63,30.21,10.0,WSW,5.8,-,N/A,,Clear,240,2013-10-28 12:52:00
9:52 AM,50.0,34.0,54,30.23,10.0,WSW,8.1,-,N/A,,Clear,250,2013-10-28 13:52:00
10:52 AM,54.0,35.1,49,30.22,8.0,SW,10.4,-,N/A,,Clear,230,2013-10-28 14:52:00
11:52 AM,57.0,35.1,44,30.21,10.0,SW,15.0,-,N/A,,Clear,230,2013-10-28 15:52:00
12:52 PM,61.0,32.0,34,30.18,10.0,West,12.7,18.4,N/A,,Clear,260,2013-10-28 16:52:00
1:52 PM,61.0,32.0,34,30.16,10.0,SW,11.5,18.4,N/A,,Clear,230,2013-10-28 17:52:00
2:52 PM,61.0,36.0,39,30.17,10.0,SW,12.7,20.7,N/A,,Clear,230,2013-10-28 18:52:00
3:52 PM,62.1,30.9,31,30.17,10.0,West,8.1,-,N/A,,Clear,270,2013-10-28 19:52:00
4:52 PM,61.0,32.0,34,30.17,10.0,West,8.1,-,N/A,,Clear,280,2013-10-28 20:52:00
5:52 PM,57.9,32.0,37,30.20,10.0,WNW,5.8,-,N/A,,Clear,290,2013-10-28 21:52:00
6:52 PM,55.9,33.1,42,30.24,10.0,North,6.9,-,N/A,,Clear,350,2013-10-28 22:52:00
7:52 PM,54.0,34.0,47,30.26,10.0,North,6.9,-,N/A,,Clear,360,2013-10-28 23:52:00
8:52 PM,52.0,34.0,50,30.28,10.0,North,5.8,-,N/A,,Clear,10,2013-10-29 00:52:00
9:52 PM,52.0,33.1,49,30.30,10.0,North,6.9,-,N/A,,Clear,10,2013-10-29 01:52:00
10:52 PM,48.9,30.9,50,30.32,10.0,North,3.5,-,N/A,,Clear,360,2013-10-29 02:52:00
11:52 PM,48.0,30.9,52,30.34,10.0,NNE,6.9,-,N/A,,Clear,20,2013-10-29 03:52:00